| time (UTC) | temp F | wind direction | speed MPH | gust MPH | rain 1hr in | rain 24hr in | rain mn in | humidity % | barometer mb |
| 20260506061546 | 65 | 167 | 5.0 | 11.0 | 0.00 | 0.00 | 0.00 | 50 | 1009.2 |
| 20260506044544 | 64 | 200 | 2.0 | 6.0 | 0.00 | 0.00 | 0.00 | 49 | 1009.7 |
| 20260506043041 | 64 | 180 | 2.0 | 6.0 | 0.00 | 0.00 | 0.00 | 48 | 1009.8 |
| 20260506041557 | 65 | 179 | 2.0 | 5.0 | 0.00 | 0.00 | 0.00 | 47 | 1009.9 |
| 20260506040052 | 65 | 215 | 2.0 | 5.0 | 0.00 | 0.00 | 0.00 | 47 | 1009.9 |
| 20260506034547 | 65 | 205 | 2.0 | 5.0 | 0.00 | 0.00 | 0.00 | 47 | 1010.1 |
| 20260506033044 | 65 | 194 | 2.0 | 6.0 | 0.00 | 0.00 | 0.00 | 47 | 1009.9 |
| 20260506031547 | 66 | 190 | 2.0 | 7.0 | 0.00 | 0.00 | 0.00 | 47 | 1009.9 |
| 20260506030042 | 66 | 188 | 2.0 | 5.0 | 0.00 | 0.00 | 0.00 | 46 | 1009.9 |
| 20260506024541 | 66 | 212 | 2.0 | 5.0 | 0.00 | 0.00 | 0.00 | 46 | 1010.0 |
| 20260506023045 | 66 | 205 | 2.0 | 5.0 | 0.00 | 0.00 | 0.00 | 47 | 1010.1 |
| 20260506021544 | 66 | 188 | 1.0 | 4.0 | 0.00 | 0.00 | 0.00 | 47 | 1010.1 |
| 20260506020047 | 67 | 190 | 1.0 | 3.0 | 0.00 | 0.00 | 0.00 | 47 | 1010.2 |
| 20260506014551 | 68 | 190 | 0.0 | 3.0 | 0.00 | 0.00 | 0.00 | 46 | 1010.0 |
| 20260506013041 | 69 | 190 | 1.0 | 4.0 | 0.00 | 0.00 | 0.00 | 43 | 1010.0 |
| 20260506011544 | 71 | 182 | 1.0 | 5.0 | 0.00 | 0.00 | 0.00 | 41 | 1009.9 |
| 20260506010041 | 71 | 184 | 4.0 | 8.0 | 0.00 | 0.00 | 0.00 | 38 | 1009.7 |
| 20260506004543 | 72 | 187 | 2.0 | 8.0 | 0.00 | 0.00 | 0.00 | 39 | 1009.4 |
| 20260506003038 | 72 | 232 | 3.0 | 8.0 | 0.00 | 0.00 | 0.00 | 39 | 1009.2 |
| 20260506001605 | 72 | 173 | 3.0 | 7.0 | 0.00 | 0.00 | 0.00 | 40 | 1009.0 |
| 20260506000047 | 72 | 212 | 4.0 | 10.0 | 0.00 | 0.00 | 0.00 | 39 | 1008.8 |
| 20260505234549 | 72 | 205 | 4.0 | 10.0 | 0.00 | 0.00 | 0.00 | 39 | 1008.7 |
| 20260505233040 | 73 | 207 | 4.0 | 10.0 | 0.00 | 0.00 | 0.00 | 39 | 1008.6 |
| 20260505231551 | 73 | 193 | 4.0 | 12.0 | 0.00 | 0.00 | 0.00 | 39 | 1008.6 |
| 20260505230045 | 73 | 211 | 5.0 | 11.0 | 0.00 | 0.00 | 0.00 | 38 | 1008.6 |
| 20260505224544 | 73 | 207 | 5.0 | 10.0 | 0.00 | 0.00 | 0.00 | 39 | 1008.6 |
| 20260505223055 | 73 | 202 | 4.0 | 9.0 | 0.00 | 0.00 | 0.00 | 39 | 1008.5 |
| 20260505221552 | 73 | 202 | 4.0 | 11.0 | 0.00 | 0.00 | 0.00 | 40 | 1008.4 |
| 20260505220047 | 73 | 185 | 5.0 | 14.0 | 0.00 | 0.00 | 0.00 | 40 | 1008.3 |
| 20260505214600 | 73 | 212 | 5.0 | 12.0 | 0.00 | 0.00 | 0.00 | 40 | 1008.2 |
| 20260505213057 | 73 | 226 | 5.0 | 10.0 | 0.00 | 0.00 | 0.00 | 39 | 1008.2 |
| 20260505211557 | 73 | 198 | 5.0 | 11.0 | 0.00 | 0.00 | 0.00 | 40 | 1008.1 |
| 20260505210049 | 74 | 202 | 5.0 | 16.0 | 0.00 | 0.00 | 0.00 | 38 | 1007.9 |
| 20260505204544 | 74 | 213 | 5.0 | 12.0 | 0.00 | 0.00 | 0.00 | 38 | 1008.0 |
| 20260505203046 | 75 | 184 | 6.0 | 13.0 | 0.00 | 0.00 | 0.00 | 37 | 1007.9 |
| 20260505201559 | 76 | 204 | 6.0 | 12.0 | 0.00 | 0.00 | 0.00 | 37 | 1008.0 |
| 20260505200048 | 76 | 185 | 8.0 | 14.0 | 0.00 | 0.00 | 0.00 | 36 | 1008.1 |
| 20260505194543 | 76 | 184 | 5.0 | 13.0 | 0.00 | 0.00 | 0.00 | 37 | 1008.1 |
| 20260505193049 | 76 | 220 | 6.0 | 15.0 | 0.00 | 0.00 | 0.00 | 36 | 1008.1 |
| 20260505191552 | 76 | 78 | 6.0 | 14.0 | 0.00 | 0.00 | 0.00 | 36 | 1008.5 |
| 20260505190055 | 76 | 196 | 7.0 | 15.0 | 0.00 | 0.00 | 0.00 | 34 | 1008.6 |
| 20260505184552 | 76 | 216 | 5.0 | 16.0 | 0.00 | 0.00 | 0.00 | 35 | 1008.9 |
| 20260505183048 | 76 | 197 | 5.0 | 15.0 | 0.00 | 0.00 | 0.00 | 34 | 1008.8 |
| 20260505181540 | 76 | 231 | 6.0 | 14.0 | 0.00 | 0.00 | 0.00 | 34 | 1009.2 |
| 20260505180050 | 76 | 198 | 5.0 | 13.0 | 0.00 | 0.00 | 0.00 | 37 | 1009.3 |
| 20260505174542 | 74 | 220 | 6.0 | 13.0 | 0.00 | 0.00 | 0.00 | 40 | 1009.0 |
| 20260505173049 | 74 | 276 | 5.0 | 10.0 | 0.00 | 0.00 | 0.00 | 40 | 1009.4 |
| 20260505171548 | 74 | 194 | 5.0 | 11.0 | 0.00 | 0.00 | 0.00 | 40 | 1009.4 |
| 20260505170049 | 75 | 205 | 6.0 | 11.0 | 0.00 | 0.00 | 0.00 | 38 | 1009.6 |
| 20260505164543 | 74 | 221 | 6.0 | 15.0 | 0.00 | 0.00 | 0.00 | 39 | 1009.6 |
| 20260505163041 | 74 | 142 | 3.0 | 13.0 | 0.00 | 0.00 | 0.00 | 43 | 1009.8 |
| 20260505161548 | 74 | 259 | 6.0 | 14.0 | 0.00 | 0.00 | 0.00 | 43 | 1010.2 |
| 20260505153104 | 71 | 228 | 4.0 | 9.0 | 0.00 | 0.00 | 0.00 | 49 | 1010.3 |
| 20260505151547 | 71 | 223 | 4.0 | 9.0 | 0.00 | 0.00 | 0.00 | 50 | 1010.6 |
| 20260505150108 | 70 | 209 | 4.0 | 10.0 | 0.00 | 0.00 | 0.00 | 50 | 1010.5 |
| 20260505124609 | 65 | 201 | 3.0 | 8.0 | 0.00 | 0.00 | 0.00 | 55 | 1010.7 |
| 20260505123114 | 64 | 217 | 2.0 | 7.0 | 0.00 | 0.00 | 0.00 | 58 | 1010.6 |
| 20260505121549 | 63 | 191 | 3.0 | 8.0 | 0.00 | 0.00 | 0.00 | 59 | 1010.5 |
| 20260505120052 | 62 | 188 | 3.0 | 9.0 | 0.00 | 0.00 | 0.00 | 61 | 1010.5 |
| 20260505114553 | 62 | 217 | 3.0 | 7.0 | 0.00 | 0.00 | 0.00 | 61 | 1010.3 |
| 20260505113054 | 61 | 209 | 3.0 | 7.0 | 0.00 | 0.00 | 0.00 | 63 | 1010.3 |
| 20260505111557 | 60 | 199 | 3.0 | 6.0 | 0.00 | 0.00 | 0.00 | 64 | 1010.3 |
| 20260505101549 | 59 | 215 | 3.0 | 8.0 | 0.00 | 0.00 | 0.00 | 66 | 1009.8 |
| 20260505100044 | 59 | 221 | 4.0 | 8.0 | 0.00 | 0.00 | 0.00 | 66 | 1009.7 |
| 20260505094550 | 59 | 193 | 3.0 | 8.0 | 0.00 | 0.00 | 0.00 | 66 | 1009.5 |
| 20260505093049 | 59 | 187 | 2.0 | 6.0 | 0.00 | 0.00 | 0.00 | 66 | 1009.6 |
| 20260505091548 | 58 | 195 | 3.0 | 5.0 | 0.00 | 0.00 | 0.00 | 69 | 1009.4 |
| 20260505090052 | 57 | 200 | 2.0 | 5.0 | 0.00 | 0.00 | 0.00 | 72 | 1009.4 |
| 20260505084541 | 57 | 197 | 2.0 | 5.0 | 0.00 | 0.00 | 0.00 | 73 | 1009.5 |
| 20260505083043 | 58 | 204 | 1.0 | 5.0 | 0.00 | 0.00 | 0.00 | 72 | 1009.5 |
| 20260505081550 | 58 | 187 | 2.0 | 6.0 | 0.00 | 0.00 | 0.00 | 72 | 1009.3 |
| 20260505080050 | 59 | 217 | 4.0 | 8.0 | 0.00 | 0.00 | 0.00 | 69 | 1009.4 |
| 20260505074546 | 57 | 195 | 0.0 | 4.0 | 0.00 | 0.00 | 0.00 | 67 | 1009.5 |
| 20260505073054 | 57 | 0 | 0.0 | 0.0 | 0.00 | 0.00 | 0.00 | 66 | 1009.4 |
| 20260505071545 | 57 | 0 | 0.0 | 2.0 | 0.00 | 0.00 | 0.00 | 65 | 1009.5 |
| 20260505070052 | 57 | 0 | 0.0 | 3.0 | 0.00 | 0.00 | 0.00 | 64 | 1009.7 |